OKEAN-0
1 25860U 99039A 11033.93277765 .00000070 00000-0 18098-4 0 02210
2 25860 097.8649 004.2162 0001893 068.5598 291.5806 14.73705861620880
NOAA-16
1 26536U 00055A 11034.49135756 .00000181 00000-0 12276-3 0 1758
2 26536 099.1551 062.2313 0011037 051.4180 308.8022 14.12595929534486
NOAA-17
1 27453U 02032A 11034.48639673 .00000163 00000-0 88483-4 0 1721
2 27453 098.3999 080.2222 0011843 176.2599 183.8671 14.24233316447628
NOAA-18
1 28654U 05018A 11034.33438001 .00000334 00000-0 20869-3 0 6579
2 28654 098.9799 345.2687 0014973 120.0957 240.1698 14.11434211294042
NOAA-19
1 33591U 09005A 11034.30204003 .00000138 00000-0 10056-3 0 8509
2 33591 098.8145 336.7972 0014327 358.7705 001.3431 14.11127267102509
HUBBLE
1 20580U 90037B 11032.56653249 .00000423 00000-0 19462-4 0 7084
2 20580 028.4690 182.2247 0003378 123.6925 236.4065 15.01149434939257
ISS
1 25544U 98067A 11034.83945877 .00018784 00000-0 14274-3 0 7649
2 25544 051.6455 124.6609 0003537 271.6432 188.8970 15.72349970699911
CO-58
1 28895U 05043F 11033.60671841 .00000232 00000-0 57608-4 0 07912
2 28895 097.9876 275.0470 0016914 285.4289 074.5040 14.60001761280606
FALCON
1 30776U 07006E 11034.51352051 .00000573 00000-0 43552-4 0 143
2 30776 035.4326 079.4249 0001322 359.0701 001.0013 15.04089396214902
MAST
1 31126U 07012K 11033.74753255 -.00000004 00000-0 96649-5 0 00769
2 31126 097.9112 068.4811 0093740 228.6628 130.6475 14.53668296201558
CAPE1
1 31130U 07012P 11034.64054047 .00000080 00000-0 29078-4 0 952
2 31130 097.9122 066.3002 0101819 235.6055 123.5479 14.52285571201254
COMPASS
1 32787U 08021E 11034.75379499 .00000777 00000-0 10417-3 0 9009
2 32787 097.8650 100.9817 0014682 249.7179 110.2448 14.82128135149795
AAUSAT2
1 32788U 08021F 11034.66570646 .00000358 00000-0 51370-4 0 8881
2 32788 097.8659 101.0795 0014603 252.1817 107.7811 14.82287508149797
DO-64
1 32789U 08021G 11033.76429568 .00000923 00000-0 12113-3 0 09068
2 32789 097.8747 100.9673 0014544 252.0872 107.8750 14.82571621149664
CO-66
1 32791U 08021J 11034.74497573 .00000592 00000-0 81366-4 0 8902
2 32791 097.8657 100.9497 0015020 248.8748 111.0854 14.81870645149744
RS-30
1 32953U 08025A 11034.69672127 .00000010 00000-0 00000 0 0 4384
2 32953 082.4978 245.7142 0018633 320.1622 039.8091 12.43010473122509
TACSAT-3
1 35001U 09028A 11034.86128549 .00004961 00000-0 10798-3 0 4959
2 35001 040.4551 259.6741 0024299 298.2766 061.5606 15.44638965 96437
PHARMSAT
1 35002U 09028B 11033.85276349 .00004337 00000-0 94248-4 0 4613
2 35002 040.4692 263.2408 0026336 295.1619 064.6475 15.44848942 96304
HAWKSAT1
1 35003U 09028C 11034.81370514 .00013391 00000-0 22119-3 0 5023
2 35003 040.4591 242.2735 0025262 326.0749 033.8506 15.51565422 96623
CP6
1 35004U 09028D 11033.95327067 .00015451 00000-0 23508-3 0 05058
2 35004 040.4596 243.5751 0024663 326.0330 033.8908 15.53771340096526
AEROCUB3
1 35005U 09028E 11006.09222617 .14049365 73043-5 82692-3 0 6103
2 35005 040.4461 021.7975 0025578 084.1677 280.7191 16.39196088 92544
METEOR-M
1 35865U 09049A 11034.72716586 .00000176 00000-0 10000-3 0 674
2 35865 098.7262 091.4727 0003318 059.2730 300.8728 14.21834242 71629
RS-38
1 35869U 09049E 11034.74317497 .00000177 00000-0 10000-3 0 815
2 35869 098.7246 091.5302 0005481 059.4591 300.7100 14.21999183 71635
